This is the latest recevied weather packets stored in our database for station/object K6ALF. If no packets are shown the sender has not sent any weather packets the latest 10 day(s).
| Time | Temp. | Humidity | Pressure | Rain* | Wind** | Luminosity | Snow |
|---|---|---|---|---|---|---|---|
| 1777992352 | 11.67° C | 94% | 1014.6 hPa | 0 mm | - | - | - |
| 1777988753 | 11.67° C | 94% | 1014.1 hPa | 0 mm | - | - | - |
| 1777986021 | 11.11° C | 94% | 1014 hPa | 0 mm | - | - | - |
| 1777979720 | 11.67° C | 94% | 1013.9 hPa | 0 mm | - | - | - |
| 1777977054 | 11.67° C | 94% | 1013.9 hPa | 0 mm | - | - | - |
| 1777974320 | 11.67° C | 94% | 1013.8 hPa | 0 mm | - | - | - |
| 1777973420 | 12.22° C | 94% | 1014 hPa | 0 mm | - | - | - |
| 1777971620 | 11.67° C | 94% | 1014.3 hPa | 0 mm | - | - | - |
| 1777969820 | 11.67° C | 94% | 1014.7 hPa | 0.25 mm | - | - | - |
| 1777967120 | 11.67° C | 94% | 1014.6 hPa | 1.02 mm | - | - | - |
| 1777966220 | 11.67° C | 94% | 1014.8 hPa | 0.76 mm | - | - | - |
| 1777950921 | 11.67° C | 93% | 1014.7 hPa | 4.32 mm | - | - | - |
| 1777935622 | 13.89° C | 90% | 1014.7 hPa | 1.78 mm | - | - | - |
| 1777930220 | 13.89° C | 90% | 1015.2 hPa | 1.27 mm | - | - | - |
| 1777926623 | 13.89° C | 86% | 1015 hPa | 0.51 mm | - | - | - |
| 1777915821 | 14.44° C | 80% | 1015 hPa | 0 mm | - | - | - |
| 1777913122 | 14.44° C | 79% | 1014.7 hPa | 0 mm | - | - | - |
| 1777907785 | 13.89° C | 80% | 1014.1 hPa | 0 mm | - | - | - |
| 1777905023 | 13.33° C | 83% | 1014.3 hPa | 0 mm | - | - | - |
| 1777904121 | 13.33° C | 84% | 1014.2 hPa | 0 mm | - | - | - |
| 1777903223 | 12.78° C | 84% | 1014.3 hPa | 0 mm | - | - | - |
| 1777900520 | 12.78° C | 84% | 1013.6 hPa | 0 mm | - | - | - |
| 1777889721 | 12.78° C | 81% | 1013.5 hPa | 0 mm | - | - | - |
| 1777887020 | 13.33° C | 80% | 1013.6 hPa | 0 mm | - | - | - |
| 1777885220 | 13.33° C | 81% | 1013.6 hPa | 0 mm | - | - | - |
* Rain latest hour (hover to see other rain measurements)
** Current wind speed in m/s (hover to see current wind gust speed)